Regional Weather Roundup
Issued by NWS Upton, NY

Current Version | Previous Version | Graphics & Text | Print | Product List | Glossary Off
Versions: 1 2 3 4 5 6 7 8 9 10 11 12 13 14 15 16 17 18 19 20 21 22 23 24 25 26 27 28

000
ASUS41 KOKX 220905
RWROKX

REGIONAL WEATHER ROUNDUP
NATIONAL WEATHER SERVICE NEW YORK NY
500 AM EDT WED OCT 22 2014

NOTE: "FAIR" INDICATES FEW OR NO CLOUDS BELOW 12,000 FEET WITH NO
SIGNIFICANT WEATHER AND/OR OBSTRUCTIONS TO VISIBILITY.

NYZ071-072-176-178-NJZ106-104-221000-
NEW YORK CITY METRO AREA


CITY           SKY/WX    TMP DP  RH WIND       PRES   REMARKS
CENTRAL PARK   LGT RAIN  56  53  90 VRB3      29.92R FOG
LAGUARDIA APRT LGT RAIN  57  55  93 NE13      29.88S
KENNEDY INTL   TSTM      57  53  86 N17       29.88S
NEWARK/LIBERTY TSTM      57  55  94 NE16G25   29.88R FOG
BRNX BOT. GARD   N/A     54  52  94 NE3       29.91S
TETERBORO      RAIN      56  53  90 NE6       29.88S
$$

NYZ177-179-078>081-221000-
LONG ISLAND NEW YORK

CITY           SKY/WX    TMP DP  RH WIND       PRES   REMARKS
FARMINGDALE    CLOUDY    57  54  89 NE13      29.87R
ISLIP          CLOUDY    57  54  89 NE10      29.86R
SHIRLEY        CLOUDY    57  54  89 NE7       29.87F
WESTHAMPTON    CLOUDY    58  55  90 NE14G22   29.88S
MONTAUK POINT    N/A     58  55  90 NE10G20   29.92R
$$

NYZ052-065-067-221000-
HUDSON VALLEY

CITY           SKY/WX    TMP DP  RH WIND       PRES   REMARKS
WHITE PLAINS   DRIZZLE   54  51  90 N10       29.89S
NEWBURGH       CLOUDY    52  50  93 VRB6      29.95R
MONTGOMERY     CLOUDY    51  49  92 NE13      29.94R
POUGHKEEPSIE   CLOUDY    52  49  89 N9        29.95R
ALBANY         CLOUDY    50  46  86 N12       30.03R
$$

NJZ001-105-106-008-010-013-015-019>022-104-221000-
NEW JERSEY

CITY           SKY/WX    TMP DP  RH WIND       PRES   REMARKS
NEWARK/LIBERTY TSTM      57  55  94 NE16G25   29.88R FOG
TETERBORO      RAIN      56  53  90 NE6       29.88S
CALDWELL       LGT RAIN  55  51  86 NE7       29.90R
MORRISTOWN     CLOUDY    57  54  88 N7        29.89S
SOMERVILLE     CLOUDY    57  52  83 N8        29.86S
SUSSEX         LGT RAIN  54  50  86 NE9       29.93R
ANDOVER          N/A     52  50  93 NE6       29.91S
TRENTON        CLOUDY    56  51  84 NE14      29.86R
MILLVILLE      CLOUDY    55  53  93 N7        29.79F
ATLANTIC CITY  CLOUDY    56  56 100 NE8       29.79F
WRIGHTSTOWN    LGT RAIN  55  55  99 NE8       29.83R
TOMS RIVER     CLOUDY    55  54  94 NW5       29.84R
BELMAR         CLOUDY    55  48  76 N10       29.84R
$$

PAZ047>061-062-071-221000-
EASTERN PENNSYLVANIA

CITY           SKY/WX    TMP DP  RH WIND       PRES   REMARKS
PHILADELPHIA   CLOUDY    57  50  77 N13G24    29.84S
ALLENTOWN      CLOUDY    54  49  83 NE10      29.89S
SCRANTON       CLOUDY    51  49  92 CALM      29.94R
$$

CTZ002-004>006-009-010-012-RIZ004-006-007-MAZ004-011-015-221000-
SOUTHERN NEW ENGLAND
 IN CT

CITY           SKY/WX    TMP DP  RH WIND       PRES   REMARKS
BRADLEY INTL   CLOUDY    54  48  80 N15       29.96R
HARTFORD       CLOUDY    54  49  83 N15G21    29.96R
DANBURY        CLOUDY    53 N/A N/A NE15G21   29.93S
WTRBRY/OXFORD  CLOUDY    52  46  82 NE12G17   29.93S
BRIDGEPORT     CLOUDY    56  52  86 N16       29.89F
MERIDEN        CLOUDY    54  49  83 N12G21    29.93S
NEW HAVEN      CLOUDY    56  51  84 N13       29.90F
CHESTER        CLOUDY    54  52  94 NE9       29.93R
GROTON         CLOUDY    55  52  89 N12       29.92R
WILLIMANTIC    CLOUDY    53  49  86 N6        29.96R

 IN RI

CITY           SKY/WX    TMP DP  RH WIND       PRES   REMARKS
PROVIDENCE     CLOUDY    52  50  93 N13       29.95R
BLOCK ISLAND   CLOUDY    55  52  88 NE15G21   29.91R
WESTERLY       CLOUDY    55  52  89 N8        29.93R

 IN MA

CITY           SKY/WX    TMP DP  RH WIND       PRES   REMARKS
BOSTON         CLOUDY    52  49  89 N13       29.98R
WORCESTER      FOG       47  46  97 N13       29.97S VSB 1/4
WESTFIELD      CLOUDY    53  47  79 N9        29.99R
PROVINCETOWN   CLOUDY    57  54  88 NE12      29.95R
NANTUCKET      CLOUDY    57  55  93 N13       29.90S
$$

ANZ330-335-338-340-345-350-353-355-221000-
COASTAL MARINE OBSERVATIONS


STATION/POSITION TIME  SKY/WX   TEMP    WIND        PRES    VSBY  WAVE
                                AIR SEA DIR/SP/G                  HT/PER
                 (UTC)          (F)     (DEG/KT/KT) (MB)    (MI)  (FT/S)
NY HARB ENTRANCE NOT AVBL
4S FIRE IS       0900               63                N/A           5/ 5
20S FIRE ISLAND  0900            62 64   60/ 21/ 27 1009.5          5/ 5
23SW MTP         0900                                 N/A           5/ 7
HUDSON CANYON    0900            66 66   90/ 16/ 19 1008.1          5/ 8
EXECUTION ROCKS  0900            58 63   40/ 19/ 25   N/A
WESTERN LI SOUND 0900            58      20/ 14/ 17   N/A           3/ 5
CENTRAL LI SOUND 0800            58 64   40/ 16/ 19   N/A           2/ 4
EASTERN LI SOUND 0800            58 63   40/ 14/ 17   N/A
ROBBINS REEF     0900            58      50/ 22/ 27 1009.9
$$


>>>>>>>>>>>>>>>>>>>>>>>>>>>> KEY <<<<<<<<<<<<<<<<<<<<<<<<<<<
>                                                          <
>     SKY/WX - SKY CONDITION/PRESENT WEATHER               <
>     TMP    - TEMPERATURE IN FAHRENHEIT                   <
>     DP     - DEWPOINT IN FAHRENHEIT                      <
>     RH     - RELATIVE HUMIDITY IN PERCENT                <
>     WIND   - DIRECTION AND SPEED IN MPH                  <
>     PRES   - MEAN SEA LEVEL PRESSURE IN INCHES OF HG     <
>     WCI    - WIND CHILL INDEX                            <
>     VSB    - VISIBILITY IN MILES                         <
>     HX     - HEAT INDEX                                  <
>     TC     - TEMPERATURE IN CELSIUS                      <
>     VRB    - VARIABLE WIND DIRECTION                     <
>                                                          <
>>>>>>>>>>>>>>>>>>>>>>>>>>>> KEY <<<<<<<<<<<<<<<<<<<<<<<<<<<





USA.gov is the U.S. government's official web portal to all federal, state and local government web resources and services.